Zurück zum Katalog

CZ-6A DEB

AktivPO
NORAD 61810·DEBRIS·🇨🇳 China

Gestartet Aug 6, 2024 von Taiyuan Satellite Launch Center

Loading…

Nächste Überflüge (nächste 24 Stunden)

TLE

AktuellSource: Space-Track

Epoche: Sep 13, 2026, 17:51 UTC

1 61810U 24140ACA 26256.74404971  .00002181  00000-0  74774-3 0  9998
2 61810  88.9872 263.6142 0187034 166.5294 194.0995 14.26454308105246

Verfolge CZ-6A DEB in Echtzeit mit AllMySat

Download on the App Store